This is the latest recevied weather packets stored in our database for station/object EA5JUX. If no packets are shown the sender has not sent any weather packets the latest 1 day(s).
| Time | Temp. | Humidity | Pressure | Rain* | Wind** | Luminosity | Snow |
|---|---|---|---|---|---|---|---|
| 1836274762 | 25° C | 82% | 1019.2 hPa | 0 mm | 1.79 m/s, 68° | - | - |
| 1836274462 | 25° C | 81% | 1019.4 hPa | 0 mm | 1.79 m/s, 45° | - | - |
| 1836274311 | 25° C | 81% | 1019.4 hPa | 0 mm | 1.79 m/s, 68° | - | - |
| 1836274161 | 25° C | 81% | 1019.4 hPa | 0 mm | 2.68 m/s, 45° | - | - |
| 1778047948 | 18.89° C | 78% | 1009.9 hPa | 0 mm | 2.68 m/s, 45° | - | - |
| 1778047637 | 18.33° C | 79% | 1009.9 hPa | 0 mm | 3.13 m/s, 45° | - | - |
| 1778047336 | 18.33° C | 80% | 1009.9 hPa | 0 mm | 2.24 m/s, 45° | - | - |
| 1778047038 | 18.33° C | 81% | 1010 hPa | 0 mm | 2.68 m/s, 45° | - | - |
| 1778046758 | 18.33° C | 81% | 1009.7 hPa | 0 mm | 2.68 m/s, 68° | - | - |
| 1778046437 | 18.33° C | 83% | 1009.7 hPa | 0 mm | 2.68 m/s, 45° | - | - |
| 1778046138 | 18.33° C | 84% | 1009.5 hPa | 0 mm | 1.79 m/s, 45° | - | - |
| 1778045837 | 18.33° C | 84% | 1009.4 hPa | 0 mm | 2.24 m/s, 23° | - | - |
| 1778045550 | 17.78° C | 85% | 1009.3 hPa | 0 mm | 2.68 m/s, 68° | - | - |
| 1778045238 | 17.78° C | 85% | 1009.6 hPa | 0 mm | 1.79 m/s, 68° | - | - |
| 1778044937 | 17.78° C | 86% | 1009.4 hPa | 0 mm | 3.58 m/s, 68° | - | - |
| 1778044637 | 17.78° C | 86% | 1009.5 hPa | 0 mm | 2.24 m/s, 90° | - | - |
| 1778044347 | 17.78° C | 86% | 1009.5 hPa | 0 mm | 3.58 m/s, 45° | - | - |
| 1778044037 | 17.78° C | 86% | 1009.3 hPa | 0 mm | 3.58 m/s, 45° | - | - |
| 1778043737 | 17.78° C | 86% | 1009.2 hPa | 0 mm | 3.13 m/s, 45° | - | - |
| 1778043437 | 17.78° C | 87% | 1009 hPa | 0 mm | 1.79 m/s, 45° | - | - |
| 1778043137 | 17.78° C | 87% | 1008.9 hPa | 0 mm | 1.79 m/s, 45° | - | - |
| 1778042837 | 17.22° C | 88% | 1008.6 hPa | 0 mm | 2.24 m/s, 45° | - | - |
| 1778042538 | 13.89° C | 87% | 1008.8 hPa | 0 mm | 0 m/s | - | - |
| 1778042238 | 14.44° C | 87% | 1008.8 hPa | 0 mm | 0 m/s | - | - |
| 1778041937 | 13.89° C | 87% | 1008.9 hPa | 0 mm | 0 m/s | - | - |
* Rain latest hour (hover to see other rain measurements)
** Current wind speed in m/s (hover to see current wind gust speed)